Weather History for KHSB - January, 2014

Change the Weather History Date:

Wednesday, January 29, 2014

  Actual Average (KMWA) Record (KMWA)
Temperature  
Mean Temperature 16 °F -  
Max Temperature 29 °F 41 °F 71 °F (2002)
Min Temperature 2 °F 21 °F -5 °F (1977)
Degree Days  
Heating Degree Days 50    
Moisture  
Dew Point 2 °F    
Average Humidity 55    
Maximum Humidity 85    
Minimum Humidity 29    
Precipitation  
Precipitation 0.00 in - - ()
Sea Level Pressure  
Sea Level Pressure 30.37 in    
Wind  
Wind Speed 4 mph (SSW)    
Max Wind Speed 15 mph    
Max Gust Speed 20 mph    
Visibility 10 miles    
Events      
Averages and records for this station are not official NWS values.
T = Trace of Precipitation, MM = Missing Value Source: NWS Daily Summary

Daily Weather History Graph

Daily Weather History Graph

Search for Another Location

Airport or City:

Trip Planner

Search our weather history database for the weather conditions in past years. The results will help you decide how hot, cold, wet, or windy it might be!

Date:

Astronomy

Jan. 29, 2014 Rise Set
Actual Time 7:00 AM CST 5:14 PM CST
Civil Twilight 6:32 AM CST 5:42 PM CST
Nautical Twilight 6:01 AM CST 6:13 PM CST
Astronomical Twilight 5:30 AM CST 6:44 PM CST
Moon 5:37 AM CST (1/29) 4:13 PM CST (1/29)
Length of Visible Light 11h 09m
Length of Day
10h 13m
Waning Crescent, 2% of the Moon is Illuminated
Jan 29
Waning Crescent
Jan 30
New
Feb 6
First Quarter
Feb 14
Full
Feb 22
Last Quarter

Hourly Weather History & Observations

Time (CST) Temp. Windchill Dew Point Humidity Pressure Visibility Wind Dir Wind Speed Gust Speed Precip Events Conditions
12:15 AM 5.0 °F -2.1 °F 0.5 °F 82% 30.44 in 10.0 mi SSW 3.5 mph - N/A   Clear
12:35 AM 4.5 °F - 0.1 °F 82% 30.44 in 10.0 mi Calm Calm - N/A   Clear
12:55 AM 4.8 °F - 0.5 °F 82% 30.43 in 10.0 mi Calm Calm - N/A   Clear
1:15 AM 4.6 °F - -0.0 °F 81% 30.42 in 10.0 mi Calm Calm - N/A   Clear
1:35 AM 4.6 °F - 0.3 °F 82% 30.43 in 10.0 mi Calm Calm - N/A   Clear
1:55 AM 4.1 °F - -0.0 °F 83% 30.43 in 10.0 mi Calm Calm - N/A   Clear
2:15 AM 4.5 °F - -0.4 °F 80% 30.43 in 10.0 mi Calm Calm - N/A   Clear
2:35 AM 5.0 °F - -0.2 °F 79% 30.43 in 10.0 mi Calm Calm - N/A   Clear
2:55 AM 4.1 °F - -0.4 °F 82% 30.43 in 10.0 mi Calm Calm - N/A   Clear
3:15 AM 3.9 °F - -0.6 °F 82% 30.42 in 10.0 mi Calm Calm - N/A   Clear
3:35 AM 3.0 °F - -0.6 °F 85% 30.41 in 10.0 mi Calm Calm - N/A   Clear
3:55 AM 3.6 °F - -0.6 °F 83% 30.41 in 10.0 mi Calm Calm - N/A   Clear
4:15 AM 3.7 °F - -0.6 °F 82% 30.40 in 10.0 mi Calm Calm - N/A   Clear
4:35 AM 4.1 °F - -0.6 °F 81% 30.40 in 10.0 mi Calm Calm - N/A   Clear
4:55 AM 3.2 °F - -1.1 °F 82% 30.40 in 10.0 mi Calm Calm - N/A   Clear
5:15 AM 2.3 °F - -1.7 °F 84% 30.40 in 10.0 mi Calm Calm - N/A   Clear
5:35 AM 3.2 °F - -1.3 °F 82% 30.40 in 10.0 mi Calm Calm - N/A   Clear
5:55 AM 4.1 °F - -1.5 °F 78% 30.40 in 10.0 mi Calm Calm - N/A   Clear
6:15 AM 4.3 °F - -2.2 °F 75% 30.41 in 10.0 mi Calm Calm - N/A   Clear
6:35 AM 4.8 °F - -2.4 °F 72% 30.41 in 10.0 mi Calm Calm - N/A   Clear
6:55 AM 5.4 °F - -2.2 °F 71% 30.41 in 10.0 mi Calm Calm - N/A   Clear
7:15 AM 3.9 °F - -2.0 °F 76% 30.41 in 10.0 mi Calm Calm - N/A   Clear
7:35 AM 5.4 °F - 0.1 °F 79% 30.42 in 10.0 mi Calm Calm - N/A   Clear
7:55 AM 8.2 °F - 0.1 °F 70% 30.42 in 10.0 mi Calm Calm - N/A   Clear
8:15 AM 10.2 °F 3.8 °F 1.2 °F 67% 30.42 in 10.0 mi SW 3.5 mph - N/A   Clear
8:35 AM 12.7 °F 2.4 °F 2.7 °F 64% 30.42 in 10.0 mi SW 6.9 mph - N/A   Clear
8:55 AM 15.3 °F 3.5 °F 3.2 °F 59% 30.43 in 10.0 mi SW 9.2 mph - N/A   Clear
9:15 AM 17.1 °F 5.8 °F 3.0 °F 54% 30.43 in 10.0 mi SW 9.2 mph - N/A   Clear
9:35 AM 18.5 °F 7.5 °F 3.6 °F 52% 30.43 in 10.0 mi SW 9.2 mph - N/A   Clear
9:55 AM 20.5 °F 9.2 °F 2.5 °F 46% 30.42 in 10.0 mi SW 10.4 mph - N/A   Clear
10:15 AM 21.7 °F 10.2 °F -0.0 °F 39% 30.43 in 10.0 mi SW 11.5 mph - N/A   Clear
10:35 AM 22.8 °F 11.5 °F -0.4 °F 36% 30.43 in 10.0 mi SW 11.5 mph - N/A   Clear
10:55 AM 23.5 °F 12.4 °F -0.8 °F 35% 30.42 in 10.0 mi SSW 11.5 mph 16.1 mph N/A   Clear
11:15 AM 24.4 °F 13.5 °F -1.1 °F 33% 30.42 in 10.0 mi SW 11.5 mph - N/A   Clear
11:35 AM 25.5 °F 16.2 °F -0.4 °F 33% 30.41 in 10.0 mi SW 9.2 mph - N/A   Clear
11:55 AM 26.2 °F 15.8 °F 0.5 °F 33% 30.40 in 10.0 mi SSW 11.5 mph 16.1 mph N/A   Clear
12:15 PM 26.6 °F 14.7 °F 1.0 °F 33% 30.40 in 10.0 mi SW 15.0 mph - N/A   Clear
12:35 PM 28.0 °F 18.6 °F 1.8 °F 32% 30.38 in 10.0 mi SSW 10.4 mph 19.6 mph N/A   Clear
12:55 PM 28.0 °F 18.6 °F 1.2 °F 32% 30.37 in 10.0 mi SW 10.4 mph 18.4 mph N/A   Clear
1:15 PM 28.2 °F 18.9 °F 0.9 °F 31% 30.37 in 10.0 mi SW 10.4 mph 17.3 mph N/A   Clear
1:35 PM 28.8 °F 17.9 °F 0.3 °F 30% 30.36 in 10.0 mi SSW 13.8 mph 18.4 mph N/A   Clear
1:55 PM 28.8 °F 20.2 °F 0.3 °F 30% 30.36 in 10.0 mi SW 9.2 mph 16.1 mph N/A   Clear
2:15 PM 29.5 °F 20.4 °F 0.7 °F 29% 30.35 in 10.0 mi WSW 10.4 mph 16.1 mph N/A   Clear
2:35 PM 29.8 °F 20.9 °F 1.2 °F 29% 30.35 in 10.0 mi West 10.4 mph 18.4 mph N/A   Clear
2:55 PM 29.8 °F 19.8 °F 0.9 °F 29% 30.35 in 10.0 mi WSW 12.7 mph 17.3 mph N/A   Clear
3:15 PM 29.7 °F 20.7 °F 0.5 °F 29% 30.34 in 10.0 mi WSW 10.4 mph 17.3 mph N/A   Clear
3:35 PM 29.8 °F 20.9 °F 0.5 °F 29% 30.34 in 10.0 mi SW 10.4 mph - N/A   Clear
3:55 PM 29.8 °F 20.3 °F 1.2 °F 29% 30.33 in 10.0 mi SW 11.5 mph - N/A   Clear
4:15 PM 29.3 °F 20.2 °F 1.9 °F 31% 30.33 in 10.0 mi SW 10.4 mph - N/A   Clear
4:35 PM 28.9 °F 21.1 °F 2.5 °F 32% 30.32 in 10.0 mi SW 8.1 mph - N/A   Clear
4:55 PM 28.0 °F 20.0 °F 3.0 °F 34% 30.32 in 10.0 mi SSW 8.1 mph - N/A   Clear
5:15 PM 27.5 °F 19.3 °F 3.2 °F 35% 30.32 in 10.0 mi SSW 8.1 mph - N/A   Clear
5:35 PM 26.2 °F 18.6 °F 3.7 °F 38% 30.32 in 10.0 mi South 6.9 mph - N/A   Clear
5:55 PM 25.3 °F 17.6 °F 3.9 °F 40% 30.31 in 10.0 mi South 6.9 mph - N/A   Clear
6:15 PM 22.6 °F 14.3 °F 6.4 °F 50% 30.31 in 10.0 mi South 6.9 mph - N/A   Clear
6:35 PM 23.0 °F 15.8 °F 6.4 °F 49% 30.32 in 10.0 mi South 5.8 mph - N/A   Clear
6:55 PM 22.1 °F 14.7 °F 6.8 °F 52% 30.32 in 10.0 mi South 5.8 mph - N/A   Clear
7:15 PM 20.5 °F 12.8 °F 7.7 °F 58% 30.31 in 10.0 mi SSE 5.8 mph - N/A   Clear
7:35 PM 19.9 °F 11.1 °F 8.4 °F 61% 30.30 in 10.0 mi SSE 6.9 mph - N/A   Clear
7:55 PM 20.8 °F 12.1 °F 8.2 °F 58% 30.30 in 10.0 mi SSE 6.9 mph - N/A   Clear
8:15 PM 20.3 °F 11.5 °F 7.7 °F 58% 30.29 in 10.0 mi SSE 6.9 mph - N/A   Clear
8:35 PM 20.5 °F 11.7 °F 6.8 °F 56% 30.29 in 10.0 mi South 6.9 mph - N/A   Clear
8:55 PM 20.3 °F 11.5 °F 7.0 °F 56% 30.29 in 10.0 mi South 6.9 mph - N/A   Clear
9:15 PM 19.9 °F 11.1 °F 7.3 °F 58% 30.29 in 10.0 mi South 6.9 mph - N/A   Clear
9:35 PM 21.4 °F 12.8 °F 6.3 °F 52% 30.29 in 10.0 mi South 6.9 mph - N/A   Clear
9:55 PM 20.8 °F 11.2 °F 6.6 °F 54% 30.28 in 10.0 mi South 8.1 mph - N/A   Clear
10:15 PM 20.3 °F 11.5 °F 6.8 °F 56% 30.27 in 10.0 mi South 6.9 mph - N/A   Clear
10:35 PM 22.5 °F 13.2 °F 5.0 °F 47% 30.27 in 10.0 mi South 8.1 mph - N/A   Clear
10:55 PM 22.5 °F 13.2 °F 4.8 °F 47% 30.27 in 10.0 mi South 8.1 mph - N/A   Clear
11:15 PM 22.5 °F 11.7 °F 4.6 °F 46% 30.26 in 10.0 mi South 10.4 mph - N/A   Clear
11:35 PM 22.5 °F 12.4 °F 4.8 °F 47% 30.26 in 10.0 mi South 9.2 mph - N/A   Clear
11:55 PM 22.3 °F 12.2 °F 4.8 °F 47% 30.25 in 10.0 mi South 9.2 mph - N/A   Clear